Location: Bella Coola
(52.3721°N, 126.7539°W)
Time: 20:31:15
(UTC-07:00)

ISS - Pass Details

Date: 30 May 2019
Orbit: 407 x 418 km, 51.6° (Epoch: 20 June)

Event Time Altitude Azimuth Distance (km) Brightness Sun altitude
Rises 22:45:52 0° 282° (WNW) 2,357 0.9 -8.1°
Reaches altitude 10° 22:48:05 10° 272° (W) 1,494 -0.4 -8.3°
Maximum altitude 22:51:07 32° 207° (SSW) 740 -2.7 -8.6°
Enters shadow 22:53:44 13° 146° (SE) 1,342 -1.9 -8.8°
